Overview Statistics Trail Chart Weather Telemetry Raw packets
 

This is the latest recevied weather packets stored in our database for station/object DC1MPP-9. If no packets are shown the sender has not sent any weather packets the latest 10 day(s).

<< 77 78 79 80 81 82 83 >>
Time Temp. Humidity Pressure Rain* Wind** Luminosity Snow
1788010757 27.22° C 43% 959 hPa - - - -
1788010275 27.22° C 41% 959 hPa - - - -
1788010034 27.22° C 41% 959 hPa - - - -
1788009793 27.22° C 42% 959 hPa - - - -
1788009552 26.67° C 42% 959 hPa - - - -
1788009311 27.22° C 43% 959 hPa - - - -
1788009070 26.67° C 44% 959 hPa - - - -
1788008828 26.67° C 40% 959 hPa - - - -
1788008600 27.22° C 41% 960 hPa - - - -
1788008346 27.22° C 42% 960 hPa - - - -
1788007864 26.67° C 47% 960 hPa - - - -
1788007623 26.67° C 45% 960 hPa - - - -
1788007382 26.11° C 43% 960 hPa - - - -
1788007141 26.67° C 43% 960 hPa - - - -
1788006659 26.67° C 41% 960 hPa - - - -
1788006418 27.22° C 43% 960 hPa - - - -
1788006177 27.22° C 41% 960 hPa - - - -
1788005942 26.67° C 40% 960 hPa - - - -
1788005454 27.22° C 45% 960 hPa - - - -
1788005212 26.67° C 44% 960 hPa - - - -
1788004971 26.67° C 48% 960 hPa - - - -
1788004730 26.11° C 45% 960 hPa - - - -
1788004489 27.22° C 46% 960 hPa - - - -
1788004248 26.67° C 51% 960 hPa - - - -
1788003766 26.67° C 47% 960 hPa - - - -

* Rain since midnight (hover to see other rain measurements)
** Current wind speed in m/s (hover to see current wind gust speed)